SCP
0 -0 0 0 0 0 0 0 0 -0 -0 -0 -0 0 0 0 0 0 0 0 0 0 0 0 0 0 0 0 0 0 0 0 1 1 1 3 3 2 1 0 0 0 0 0
0 0 0 0 -0 0 0 0 0 0 0 0 0 0 -0 0 0 0 0 0 0 0 0 0 0 0 0 0 0 0 0 0 0 0 1 1 1 1 1 1 0 0 0 0
0 0 0 -0 0 0 0 0 0 0 -0 -0 -0 -0 0 0 -0 -0 -0 0 0 0 0 0 0 0 0 0 0 0 0 0 0 0 0 1 0 0 1 1 1 1 0 0
0 0 0 0 0 0 0 -0 -0 0 -0 0 0 0 0 -0 0 -0 -0 0 0 0 0 0 0 0 0 0 0 0 0 0 0 0 0 0 0 1 1 1 2 1 1 1
0 0 -0 -0 0 0 -0 -0 0 0 0 0 0 -0 0 0 0 0 -0 -0 0 0 0 0 0 0 0 0 0 0 0 0 0 0 0 0 0 1 1 2 2 2 1 1
0 -0 -0 0 0 0 -0 0 0 0 0 -0 -0 0 0 0 0 0 0 0 0 -0 0 -0 0 0 0 0 0 0 0 0 0 0 0 0 0 0 1 1 2 2 1 1
-0 -0 -0 0 0 0 0 -0 -0 -0 -0 0 0 0 0 -0 -0 -0 0 0 0 0 0 0 -0 0 0 0 0 0 0 0 0 0 0 0 0 0 1 1 1 3 1 1
0 -0 -0 0 -0 -0 -0 0 0 0 0 0 0 -0 0 -0 -0 -0 0 0 0 0 0 0 0 0 0 0 0 0 0 0 0 0 0 0 0 0 0 1 1 2 1 1
0 -0 0 -0 -0 -0 -0 -0 0 0 0 0 0 -0 0 0 -0 0 0 0 0 0 0 0 0 0 0 0 0 0 0 0 0 0 0 0 0 0 0 0 0 0 0 0
-0 -0 -0 -0 -0 0 0 0 0 0 0 0 -0 -0 -0 0 0 0 0 0 0 0 0 0 0 0 0 0 0 0 0 0 0 0 0 0 0 0 0 0 0 0 0 0
-0 -0 0 -0 -0 0 0 -0 0 0 0 0 -0 -0 0 0 0 0 0 0 0 0 0 0 0 0 0 0 0 0 0 0 0 0 0 0 0 0 0 0 0 0 0 0
-0 -0 -0 -0 0 0 -0 -0 -0 0 0 0 -0 -0 0 0 0 0 0 0 0 0 0 0 0 0 0 -0 -0 0 0 0 0 0 0 0 0 0 0 0 0 0 0 0
-0 -0 -0 -0 0 -0 -0 -0 -0 0 0 0 -0 -0 0 0 0 0 0 0 0 0 0 0 0 0 0 0 -0 -0 0 0 0 0 0 0 0 0 0 0 0 0 0 0
-0 -0 -0 0 -0 -0 -0 -0 -0 -0 0 0 0 0 0 0 0 0 0 0 0 0 0 0 0 0 0 0 0 0 -0 0 0 0 0 0 0 0 0 0 0 0 0 0
-0 -0 -0 -0 -0 0 0 -0 -0 -0 -0 -0 0 0 0 0 0 0 0 0 0 0 0 0 0 0 0 0 0 0 -0 0 0 0 0 0 0 0 0 0 0 0 0 0
-0 -0 -0 -0 -0 0 0 0 -0 -0 -0 -0 -0 0 0 0 0 0 0 0 0 0 0 0 0 0 0 0 0 0 0 -0 -0 -0 0 0 0 -0 0 0 0 0 0 0
-0 -0 -0 -0 -0 -0 0 0 0 0 -0 -0 -0 -0 0 0 0 0 0 0 0 0 0 0 0 -0 0 0 0 0 0 -0 0 0 -0 -0 -0 -0 0 0 0 0 0 0
-0 0 0 0 -0 -0 -0 -0 -0 0 0 -0 -0 -0 -0 0 0 0 0 0 0 0 0 0 0 0 0 0 0 0 0 0 0 -0 -0 0 0 0 0 0 0 0 0 0
0 0 0 0 -0 -0 -0 -0 -0 -0 0 -0 -0 -0 -0 -0 0 0 0 0 -0 0 0 0 0 0 0 0 0 0 0 0 0 0 0 0 0 0 0 0 0 0 0 0
-0 0 0 0 -0 -0 -0 -0 -0 -0 -0 -0 -0 -0 -0 -0 -0 0 0 0 0 0 0 0 0 0 0 0 0 0 0 0 0 0 0 0 0 0 0 0 0 0 0 0
0 -0 -0 -0 -0 0 -0 -0 -0 0 -0 0 -0 -0 -0 -0 -0 -0 -0 0 -0 -0 0 -0 0 0 0 0 0 0 0 0 0 0 0 0 0 0 0 0 0 0 0 0
0 -0 -0 -0 0 0 0 0 -0 0 -0 -0 -0 0 -0 -0 -0 -0 0 0 0 -0 0 0 0 -0 0 0 0 0 0 0 0 0 0 0 0 0 -0 0 0 0 -0 0
0 -0 -0 -0 0 0 0 0 0 -0 0 -0 -0 -0 -0 0 0 -0 -0 -0 -0 -0 0 0 -0 -0 -0 0 0 0 0 0 0 -0 0 0 -0 -0 -0 -0 0 -0 0 0
-0 -0 -0 -0 0 0 -0 0 0 0 0 -0 0 0 -0 -0 0 0 0 -0 -0 -0 -0 -0 -0 -0 -0 0 -0 -0 0 0 0 0 0 -0 -0 -0 0 0 -0 -0 -0 -0
-0 -0 -0 -0 -0 -0 -0 -0 -0 -0 0 0 0 0 0 -0 -0 -0 0 -0 -0 -0 -0 -0 -0 -0 -0 -0 -0 -0 -0 -0 -0 -0 0 0 0 0 -0 0 0 0 0 0
-0 0 0 0 0 -0 -0 -0 -0 -0 -0 -0 -0 -0 -0 -0 -0 -0 -0 0 0 -0 -0 -0 -0 -0 -0 -0 -0 -0 -0 -0 -0 -0 -0 -0 -0 0 -0 0 0 0 0 0
0 0 -0 -0 -0 -0 -0 -0 -0 -0 -0 -0 -0 -0 -0 -0 -0 -0 0 0 0 0 0 0 -0 -0 -0 -0 -0 -0 -0 -0 -0 -0 -0 -0 -0 -0 -0 -0 0 0 0 0
Wind_Speed_500mb
34 34 30 32 34 35 39 40 40 51 50 48 42 40 38 48 54 58 59 57 56 56 55 50 46 43 37 32 26 24 11 10 23 28 35 37 44 47 47 47 46 45 44 41
28 29 32 36 36 37 38 41 44 48 50 40 37 42 54 57 57 65 71 76 78 75 68 59 53 48 43 39 33 29 34 17 7 11 31 39 41 48 48 48 48 46 47 47
25 6 18 29 16 9 15 22 26 32 43 45 46 41 48 60 74 83 86 80 73 71 67 62 56 51 48 44 40 38 34 62 34 33 15 38 50 51 51 50 50 50 48 49
16 22 22 10 5 14 20 27 32 37 43 39 44 59 70 83 88 86 82 78 79 81 79 82 73 72 62 57 55 53 46 42 82 52 34 24 42 52 59 59 56 56 56 53
8 12 26 24 6 10 25 40 41 25 28 48 70 85 75 65 61 71 92 96 101 89 99 85 79 80 73 73 72 67 60 52 48 67 78 46 42 42 49 55 56 57 57 59
5 8 13 13 4 20 26 34 16 39 43 51 66 35 34 69 89 95 84 95 93 98 84 95 86 81 75 80 81 81 75 70 62 61 70 77 63 49 42 47 54 59 58 57
16 10 15 13 18 27 17 23 60 60 67 66 38 40 96 97 90 94 97 95 89 85 86 90 85 81 87 85 91 89 84 80 75 73 75 70 62 65 71 60 48 58 58 54
6 7 9 15 29 18 31 51 60 67 66 70 80 91 91 94 98 94 93 89 83 80 81 81 77 74 87 92 90 83 78 77 75 80 78 73 66 60 58 59 64 59 54 54
6 7 11 24 28 40 32 55 60 63 72 78 89 94 95 95 95 93 91 87 81 73 76 73 66 60 70 80 72 74 79 79 77 74 79 79 74 68 65 65 67 68 63 62
9 4 20 34 26 43 48 55 61 64 76 83 90 94 100 94 93 93 89 87 82 73 71 72 68 65 60 55 56 62 73 82 78 72 79 74 79 72 73 74 74 73 73 70
17 21 35 6 44 53 58 59 64 71 75 83 89 93 94 96 95 93 87 85 78 70 72 69 63 63 56 60 58 62 62 64 71 77 76 77 71 78 78 76 76 74 77 70
7 31 27 45 52 51 55 63 66 74 85 88 89 92 100 98 92 83 84 77 75 71 62 58 63 49 50 40 47 59 63 55 65 65 65 78 80 75 72 71 76 76 71 72
21 36 36 41 38 48 55 59 65 67 71 85 97 95 95 93 91 82 77 73 70 61 52 55 48 46 45 33 16 45 51 48 59 63 66 56 71 74 66 70 65 63 83 73
21 26 33 31 48 51 51 55 59 62 67 78 85 97 95 93 91 88 88 77 66 48 51 41 44 38 35 22 18 25 32 42 45 51 58 49 59 62 65 55 61 59 58 72
17 26 33 39 43 44 46 51 58 63 72 83 91 91 100 99 97 92 84 77 63 52 57 44 36 37 35 19 18 25 30 40 34 42 39 51 49 54 56 57 54 55 51 61
26 26 30 35 40 42 44 48 53 61 68 83 89 96 96 88 81 82 83 83 75 71 63 51 31 25 27 20 24 24 26 32 31 33 39 47 41 58 54 44 47 44 48 51
25 30 37 39 41 41 41 43 47 52 64 76 84 88 93 98 93 97 90 87 74 71 66 52 29 22 24 21 22 22 21 26 27 28 34 40 40 34 40 45 43 43 42 40
18 23 27 29 34 38 41 41 46 49 59 67 71 82 91 98 93 93 91 94 89 84 75 54 29 20 16 8 18 14 15 17 18 22 23 25 28 30 31 31 30 32 33 35
20 25 31 30 29 33 37 39 44 45 51 59 68 78 79 85 90 93 90 98 96 95 85 68 58 25 12 15 17 13 8 13 16 15 19 22 22 23 24 23 26 27 28 27
22 26 31 28 27 32 36 36 39 43 48 55 60 73 85 93 95 95 95 88 90 85 81 71 57 48 37 16 6 1 10 12 12 14 16 17 18 19 22 25 27 23 24 25
21 26 31 31 30 30 33 36 38 41 46 49 57 64 69 82 90 98 108 105 97 90 83 75 68 56 47 44 38 31 3 11 14 15 13 16 19 19 18 23 22 19 22 22
19 24 27 31 34 35 35 36 37 38 44 49 53 58 64 80 89 92 89 92 91 88 87 77 70 64 60 53 47 32 23 17 9 9 18 23 17 17 16 19 20 19 24 21
18 23 25 28 31 33 34 38 39 40 44 49 53 58 59 61 68 84 88 91 89 91 88 83 73 66 64 62 59 54 44 35 29 19 17 14 20 22 18 16 25 25 20 19
18 22 24 26 27 31 36 39 38 38 40 43 47 54 66 78 72 74 67 74 80 88 89 86 80 77 69 64 60 58 56 49 37 27 20 13 7 4 10 15 20 22 25 29
17 20 25 27 29 32 33 35 35 40 39 41 45 46 49 54 71 70 69 73 76 77 84 87 85 82 77 70 62 58 54 48 43 36 30 22 16 8 1 7 10 13 20 28
18 20 21 26 27 29 31 33 35 39 43 41 44 47 48 47 54 72 75 77 68 72 68 78 85 81 78 72 66 61 55 48 43 38 31 27 23 18 12 5 6 10 16 27
17 20 20 20 24 26 30 31 33 37 38 41 40 44 47 48 51 57 69 73 69 65 64 68 70 80 77 70 67 62 56 52 45 39 34 27 23 17 11 12 10 9 11 20
Wind_Direction_500mb
269 277 279 272 265 263 258 257 257 279 284 293 299 317 301 301 308 307 304 301 298 297 298 293 294 295 297 297 307 291 289 265 234 238 213 194 188 184 182 181 183 188 183 184
275 268 264 267 264 264 263 266 270 278 282 291 309 291 301 315 313 307 303 302 301 297 293 290 288 284 283 279 282 285 261 277 274 242 223 220 205 196 188 188 191 192 190 189
281 242 278 269 272 284 285 278 285 286 297 310 303 316 309 309 308 303 299 296 295 296 293 291 289 283 278 276 271 267 272 248 271 276 253 220 217 210 200 198 199 195 194 193
281 294 260 77 33 310 299 298 294 295 303 323 318 304 301 303 299 296 298 300 299 294 292 285 281 280 274 269 266 260 255 256 240 253 263 248 224 214 209 208 204 200 196 193
254 272 289 264 65 352 321 303 298 321 324 308 307 307 297 298 299 296 295 294 290 289 289 278 279 273 264 265 261 254 250 243 241 232 241 244 233 211 211 207 204 202 202 196
267 270 291 79 71 327 309 292 16 332 315 316 315 299 301 307 302 297 289 292 288 290 281 286 281 262 261 263 259 252 248 244 234 226 233 235 227 222 209 207 208 207 203 202
242 265 278 68 342 320 278 339 329 321 316 313 302 293 299 305 304 302 300 297 294 289 283 282 282 267 265 263 257 253 250 244 235 227 223 221 221 223 224 224 206 205 204 202
270 255 261 14 329 337 323 312 314 317 316 311 306 306 308 308 307 309 306 305 302 296 292 289 281 272 265 261 255 246 244 241 234 228 223 220 215 210 202 199 200 203 205 207
222 272 324 323 315 321 321 316 317 320 318 314 313 312 313 313 314 312 310 309 308 303 300 300 297 283 268 265 258 242 239 236 233 225 222 217 214 210 206 205 207 208 214 216
290 253 314 314 310 328 328 320 320 320 316 314 313 316 316 317 317 315 316 314 315 312 304 303 309 304 296 284 265 246 235 232 228 225 225 219 215 212 211 211 211 212 215 219
274 294 333 349 327 328 324 324 322 319 320 317 320 318 320 319 320 319 318 321 322 319 318 317 320 313 296 282 269 254 239 228 225 222 221 222 215 212 214 215 214 215 217 216
276 334 318 310 321 324 322 324 323 325 324 325 326 323 325 324 328 327 329 334 333 332 327 332 332 324 324 304 254 234 232 220 217 212 212 213 214 214 215 215 219 215 215 216
297 309 310 312 320 321 323 325 326 325 330 325 330 332 334 333 338 337 341 342 340 336 341 338 350 344 353 8 161 200 207 204 206 208 210 206 200 204 209 218 216 217 217 211
307 318 319 325 323 325 326 327 328 330 334 331 334 342 343 345 349 351 351 351 350 352 344 356 10 360 14 42 109 151 175 187 198 203 199 197 197 200 204 209 209 215 214 214
322 318 312 320 324 327 330 333 334 339 340 338 344 348 352 353 353 352 360 2 10 7 3 13 15 23 15 49 105 140 158 175 174 173 174 188 194 195 200 205 202 209 213 214
325 327 332 334 334 337 338 339 340 343 343 342 346 353 355 354 352 358 7 12 18 12 14 19 26 38 45 72 98 126 130 147 159 170 187 198 202 201 204 198 191 195 200 210
341 347 344 342 342 341 343 342 341 344 343 345 348 356 359 2 5 14 13 18 24 25 25 29 42 65 46 69 63 117 145 153 158 166 172 180 192 199 199 207 207 203 205 204
353 348 347 341 341 342 343 345 344 349 349 347 353 1 7 9 3 6 15 15 30 40 42 44 54 71 86 54 68 115 142 145 148 145 155 171 182 187 184 186 183 189 192 198
360 357 355 355 351 350 349 349 348 351 354 353 358 3 7 10 11 16 24 25 29 28 29 39 51 61 69 104 132 130 139 136 136 152 168 173 182 181 183 184 189 192 196 199
3 5 2 3 2 2 359 356 354 356 358 0 1 8 13 18 19 19 24 26 27 25 30 40 56 64 68 43 352 182 163 169 178 177 185 185 190 184 189 188 186 201 192 198
9 10 10 13 11 7 6 3 359 2 2 5 7 8 9 19 26 26 27 26 25 31 35 41 49 55 64 70 71 61 160 225 206 195 200 197 194 196 199 191 187 186 197 197
20 15 15 17 19 17 15 13 10 11 10 11 12 12 13 22 23 36 32 23 25 30 35 36 42 51 60 63 63 73 77 91 135 205 223 213 199 193 200 191 198 202 209 210
27 19 18 17 19 17 16 19 18 18 17 17 17 17 17 16 17 21 19 28 29 30 32 34 37 43 50 56 58 58 61 66 67 70 82 128 186 207 219 217 203 208 213 184
30 25 27 26 26 24 23 20 18 19 20 18 18 20 22 23 29 25 19 23 27 34 32 31 33 40 39 44 49 53 53 55 56 58 64 69 85 159 204 208 207 214 217 214
37 36 33 31 28 22 16 14 13 15 16 17 15 17 16 17 22 22 20 23 19 26 26 31 32 34 37 37 38 42 47 48 48 51 54 56 64 64 184 173 176 185 193 195
48 40 30 26 24 17 14 13 14 9 12 13 11 11 11 10 10 21 23 24 21 22 19 21 27 31 33 32 33 34 35 38 40 45 46 43 43 50 78 128 142 145 171 177
40 42 31 23 15 12 7 8 11 7 6 9 8 6 6 6 7 8 17 21 20 18 18 18 18 24 28 30 30 29 31 32 32 31 35 39 39 40 49 73 77 108 145 171
Wind_Speed_850mb
34 34 30 32 34 35 39 40 40 51 50 48 42 40 38 48 54 58 59 57 56 56 55 50 46 43 37 32 26 24 11 10 23 28 35 37 44 47 47 47 46 45 44 41
28 29 32 36 36 37 38 41 44 48 50 40 37 42 54 57 57 65 71 76 78 75 68 59 53 48 43 39 33 29 34 17 7 11 31 39 41 48 48 48 48 46 47 47
25 6 18 29 16 9 15 22 26 32 43 45 46 41 48 60 74 83 86 80 73 71 67 62 56 51 48 44 40 38 34 62 34 33 15 38 50 51 51 50 50 50 48 49
16 22 22 10 5 14 20 27 32 37 43 39 44 59 70 83 88 86 82 78 79 81 79 82 73 72 62 57 55 53 46 42 82 52 34 24 42 52 59 59 56 56 56 53
8 12 26 24 6 10 25 40 41 25 28 48 70 85 75 65 61 71 92 96 101 89 99 85 79 80 73 73 72 67 60 52 48 67 78 46 42 42 49 55 56 57 57 59
5 8 13 13 4 20 26 34 16 39 43 51 66 35 34 69 89 95 84 95 93 98 84 95 86 81 75 80 81 81 75 70 62 61 70 77 63 49 42 47 54 59 58 57
16 10 15 13 18 27 17 23 60 60 67 66 38 40 96 97 90 94 97 95 89 85 86 90 85 81 87 85 91 89 84 80 75 73 75 70 62 65 71 60 48 58 58 54
6 7 9 15 29 18 31 51 60 67 66 70 80 91 91 94 98 94 93 89 83 80 81 81 77 74 87 92 90 83 78 77 75 80 78 73 66 60 58 59 64 59 54 54
6 7 11 24 28 40 32 55 60 63 72 78 89 94 95 95 95 93 91 87 81 73 76 73 66 60 70 80 72 74 79 79 77 74 79 79 74 68 65 65 67 68 63 62
9 4 20 34 26 43 48 55 61 64 76 83 90 94 100 94 93 93 89 87 82 73 71 72 68 65 60 55 56 62 73 82 78 72 79 74 79 72 73 74 74 73 73 70
17 21 35 6 44 53 58 59 64 71 75 83 89 93 94 96 95 93 87 85 78 70 72 69 63 63 56 60 58 62 62 64 71 77 76 77 71 78 78 76 76 74 77 70
7 31 27 45 52 51 55 63 66 74 85 88 89 92 100 98 92 83 84 77 75 71 62 58 63 49 50 40 47 59 63 55 65 65 65 78 80 75 72 71 76 76 71 72
21 36 36 41 38 48 55 59 65 67 71 85 97 95 95 93 91 82 77 73 70 61 52 55 48 46 45 33 16 45 51 48 59 63 66 56 71 74 66 70 65 63 83 73
21 26 33 31 48 51 51 55 59 62 67 78 85 97 95 93 91 88 88 77 66 48 51 41 44 38 35 22 18 25 32 42 45 51 58 49 59 62 65 55 61 59 58 72
17 26 33 39 43 44 46 51 58 63 72 83 91 91 100 99 97 92 84 77 63 52 57 44 36 37 35 19 18 25 30 40 34 42 39 51 49 54 56 57 54 55 51 61
26 26 30 35 40 42 44 48 53 61 68 83 89 96 96 88 81 82 83 83 75 71 63 51 31 25 27 20 24 24 26 32 31 33 39 47 41 58 54 44 47 44 48 51
25 30 37 39 41 41 41 43 47 52 64 76 84 88 93 98 93 97 90 87 74 71 66 52 29 22 24 21 22 22 21 26 27 28 34 40 40 34 40 45 43 43 42 40
18 23 27 29 34 38 41 41 46 49 59 67 71 82 91 98 93 93 91 94 89 84 75 54 29 20 16 8 18 14 15 17 18 22 23 25 28 30 31 31 30 32 33 35
20 25 31 30 29 33 37 39 44 45 51 59 68 78 79 85 90 93 90 98 96 95 85 68 58 25 12 15 17 13 8 13 16 15 19 22 22 23 24 23 26 27 28 27
22 26 31 28 27 32 36 36 39 43 48 55 60 73 85 93 95 95 95 88 90 85 81 71 57 48 37 16 6 1 10 12 12 14 16 17 18 19 22 25 27 23 24 25
21 26 31 31 30 30 33 36 38 41 46 49 57 64 69 82 90 98 108 105 97 90 83 75 68 56 47 44 38 31 3 11 14 15 13 16 19 19 18 23 22 19 22 22
19 24 27 31 34 35 35 36 37 38 44 49 53 58 64 80 89 92 89 92 91 88 87 77 70 64 60 53 47 32 23 17 9 9 18 23 17 17 16 19 20 19 24 21
18 23 25 28 31 33 34 38 39 40 44 49 53 58 59 61 68 84 88 91 89 91 88 83 73 66 64 62 59 54 44 35 29 19 17 14 20 22 18 16 25 25 20 19
18 22 24 26 27 31 36 39 38 38 40 43 47 54 66 78 72 74 67 74 80 88 89 86 80 77 69 64 60 58 56 49 37 27 20 13 7 4 10 15 20 22 25 29
17 20 25 27 29 32 33 35 35 40 39 41 45 46 49 54 71 70 69 73 76 77 84 87 85 82 77 70 62 58 54 48 43 36 30 22 16 8 1 7 10 13 20 28
18 20 21 26 27 29 31 33 35 39 43 41 44 47 48 47 54 72 75 77 68 72 68 78 85 81 78 72 66 61 55 48 43 38 31 27 23 18 12 5 6 10 16 27
17 20 20 20 24 26 30 31 33 37 38 41 40 44 47 48 51 57 69 73 69 65 64 68 70 80 77 70 67 62 56 52 45 39 34 27 23 17 11 12 10 9 11 20
Wind_Direction_850mb
269 277 279 272 265 263 258 257 257 279 284 293 299 317 301 301 308 307 304 301 298 297 298 293 294 295 297 297 307 291 289 265 234 238 213 194 188 184 182 181 183 188 183 184
275 268 264 267 264 264 263 266 270 278 282 291 309 291 301 315 313 307 303 302 301 297 293 290 288 284 283 279 282 285 261 277 274 242 223 220 205 196 188 188 191 192 190 189
281 242 278 269 272 284 285 278 285 286 297 310 303 316 309 309 308 303 299 296 295 296 293 291 289 283 278 276 271 267 272 248 271 276 253 220 217 210 200 198 199 195 194 193
281 294 260 77 33 310 299 298 294 295 303 323 318 304 301 303 299 296 298 300 299 294 292 285 281 280 274 269 266 260 255 256 240 253 263 248 224 214 209 208 204 200 196 193
254 272 289 264 65 352 321 303 298 321 324 308 307 307 297 298 299 296 295 294 290 289 289 278 279 273 264 265 261 254 250 243 241 232 241 244 233 211 211 207 204 202 202 196
267 270 291 79 71 327 309 292 16 332 315 316 315 299 301 307 302 297 289 292 288 290 281 286 281 262 261 263 259 252 248 244 234 226 233 235 227 222 209 207 208 207 203 202
242 265 278 68 342 320 278 339 329 321 316 313 302 293 299 305 304 302 300 297 294 289 283 282 282 267 265 263 257 253 250 244 235 227 223 221 221 223 224 224 206 205 204 202
270 255 261 14 329 337 323 312 314 317 316 311 306 306 308 308 307 309 306 305 302 296 292 289 281 272 265 261 255 246 244 241 234 228 223 220 215 210 202 199 200 203 205 207
222 272 324 323 315 321 321 316 317 320 318 314 313 312 313 313 314 312 310 309 308 303 300 300 297 283 268 265 258 242 239 236 233 225 222 217 214 210 206 205 207 208 214 216
290 253 314 314 310 328 328 320 320 320 316 314 313 316 316 317 317 315 316 314 315 312 304 303 309 304 296 284 265 246 235 232 228 225 225 219 215 212 211 211 211 212 215 219
274 294 333 349 327 328 324 324 322 319 320 317 320 318 320 319 320 319 318 321 322 319 318 317 320 313 296 282 269 254 239 228 225 222 221 222 215 212 214 215 214 215 217 216
276 334 318 310 321 324 322 324 323 325 324 325 326 323 325 324 328 327 329 334 333 332 327 332 332 324 324 304 254 234 232 220 217 212 212 213 214 214 215 215 219 215 215 216
297 309 310 312 320 321 323 325 326 325 330 325 330 332 334 333 338 337 341 342 340 336 341 338 350 344 353 8 161 200 207 204 206 208 210 206 200 204 209 218 216 217 217 211
307 318 319 325 323 325 326 327 328 330 334 331 334 342 343 345 349 351 351 351 350 352 344 356 10 360 14 42 109 151 175 187 198 203 199 197 197 200 204 209 209 215 214 214
322 318 312 320 324 327 330 333 334 339 340 338 344 348 352 353 353 352 360 2 10 7 3 13 15 23 15 49 105 140 158 175 174 173 174 188 194 195 200 205 202 209 213 214
325 327 332 334 334 337 338 339 340 343 343 342 346 353 355 354 352 358 7 12 18 12 14 19 26 38 45 72 98 126 130 147 159 170 187 198 202 201 204 198 191 195 200 210
341 347 344 342 342 341 343 342 341 344 343 345 348 356 359 2 5 14 13 18 24 25 25 29 42 65 46 69 63 117 145 153 158 166 172 180 192 199 199 207 207 203 205 204
353 348 347 341 341 342 343 345 344 349 349 347 353 1 7 9 3 6 15 15 30 40 42 44 54 71 86 54 68 115 142 145 148 145 155 171 182 187 184 186 183 189 192 198
360 357 355 355 351 350 349 349 348 351 354 353 358 3 7 10 11 16 24 25 29 28 29 39 51 61 69 104 132 130 139 136 136 152 168 173 182 181 183 184 189 192 196 199
3 5 2 3 2 2 359 356 354 356 358 0 1 8 13 18 19 19 24 26 27 25 30 40 56 64 68 43 352 182 163 169 178 177 185 185 190 184 189 188 186 201 192 198
9 10 10 13 11 7 6 3 359 2 2 5 7 8 9 19 26 26 27 26 25 31 35 41 49 55 64 70 71 61 160 225 206 195 200 197 194 196 199 191 187 186 197 197
20 15 15 17 19 17 15 13 10 11 10 11 12 12 13 22 23 36 32 23 25 30 35 36 42 51 60 63 63 73 77 91 135 205 223 213 199 193 200 191 198 202 209 210
27 19 18 17 19 17 16 19 18 18 17 17 17 17 17 16 17 21 19 28 29 30 32 34 37 43 50 56 58 58 61 66 67 70 82 128 186 207 219 217 203 208 213 184
30 25 27 26 26 24 23 20 18 19 20 18 18 20 22 23 29 25 19 23 27 34 32 31 33 40 39 44 49 53 53 55 56 58 64 69 85 159 204 208 207 214 217 214
37 36 33 31 28 22 16 14 13 15 16 17 15 17 16 17 22 22 20 23 19 26 26 31 32 34 37 37 38 42 47 48 48 51 54 56 64 64 184 173 176 185 193 195
48 40 30 26 24 17 14 13 14 9 12 13 11 11 11 10 10 21 23 24 21 22 19 21 27 31 33 32 33 34 35 38 40 45 46 43 43 50 78 128 142 145 171 177
40 42 31 23 15 12 7 8 11 7 6 9 8 6 6 6 7 8 17 21 20 18 18 18 18 24 28 30 30 29 31 32 32 31 35 39 39 40 49 73 77 108 145 171